Location: Newark
(41.4981°N, 44.1297°E)
Time: 21:41:18
(UTC+00:00)

N. Korean satellite - Visible Passes

Search period start: 09 December 2019 00:00
Search period end: 19 December 2019 00:00
Orbit: 456 x 506 km, 97.2° (Epoch: 09 December)

Date Brightness Start Highest point End Pass type
(mag) Time Alt. Az. Time Alt. Az. Time Alt. Az.
09 Dec 8.8 02:20:54 10° NE 02:23:57 27° E 02:26:57 10° SSE visible
09 Dec 7.9 14:28:54 10° S 14:32:28 45° W 14:36:03 10° NNW visible
10 Dec 9.9 01:56:35 10° ENE 01:58:20 13° E 02:00:04 10° ESE visible
10 Dec 7.1 03:28:39 10° N 03:31:52 34° WNW 03:35:03 10° SW visible
10 Dec 6.6 14:03:19 10° SSE 14:07:02 81° ENE 14:10:44 10° N visible
11 Dec 6.4 03:02:59 10° N 03:06:32 77° WNW 03:09:58 10° SSW visible
11 Dec 9.9 15:13:13 10° SW 15:15:12 14° W 15:17:10 10° WNW visible
12 Dec 7.6 02:37:40 10° NNE 02:41:05 45° E 02:44:24 10° S visible
12 Dec 9.0 14:46:25 10° SSW 14:49:36 27° W 14:52:49 10° NW visible
13 Dec 9.2 02:12:47 10° NE 02:15:32 21° E 02:18:13 10° SE visible
13 Dec 7.8 03:46:07 10° NNW 03:48:49 21° WNW 03:51:28 10° WSW visible
13 Dec 7.3 14:20:28 10° S 14:24:06 58° W 14:27:44 10° NNW visible
14 Dec 10.1 01:49:28 10° E 01:49:52 10° E 01:50:17 10° E visible
14 Dec 6.8 03:20:11 10° N 03:23:31 43° WNW 03:26:49 10° SW visible
15 Dec 6.5 02:54:37 10° NNE 02:58:08 81° ESE 03:01:34 10° S visible
15 Dec 9.8 15:04:17 10° SW 15:06:46 17° W 15:09:15 10° NW visible
16 Dec 8.2 02:29:25 10° NNE 02:32:39 35° E 02:35:49 10° SSE visible
16 Dec 8.5 14:37:49 10° SSW 14:41:12 34° W 14:44:35 10° NNW visible
17 Dec 9.5 02:04:45 10° NE 02:07:03 17° E 02:09:20 10° SE visible
17 Dec 7.5 03:37:31 10° NNW 03:40:28 26° WNW 03:43:22 10° SW visible
17 Dec 6.9 14:12:02 10° S 14:15:43 76° WSW 14:19:23 10° NNW visible
18 Dec 6.5 03:11:43 10° N 03:15:08 56° WNW 03:18:30 10° SSW visible
18 Dec 10.3 15:23:16 10° WSW 15:23:58 10° W 15:24:40 10° W visible
